Location: Unspecified
(44.0704°N, 88.6889°W)
Time: 15:34:21
(UTC+02:00)

Transit 2A - Pass Details

Date: 24 June 2019
Orbit: 594 x 964 km, 66.7° (Epoch: 20 July)

Event Time Altitude Azimuth Distance (km) Brightness Sun altitude
Rises 07:57:35 0° 215° (SW) 3,616 - -22.5°
Reaches altitude 10° 08:00:08 10° 217° (SW) 2,688 - -22.5°
Exits shadow 08:03:39 35° 223° (SW) 1,500 7.1 -22.5°
Maximum altitude 08:06:30 76° 303° (WNW) 991 6.5 -22.5°
Drops below altitude 10° 08:12:47 10° 29° (NNE) 2,648 9.7 -22.4°
Sets 08:15:16 0° 31° (NNE) 3,560 10.5 -22.4°
